TimeMDT,TemperatureF,Dew PointF,Humidity,Sea Level PressureIn,VisibilityMPH,Wind Direction,Wind SpeedMPH,Gust SpeedMPH,PrecipitationIn,Events,Conditions,WindDirDegrees,DateUTC
12:54 AM,63.0,45.0,52,29.87,10.0,WNW,5.8,-,N/A,,Clear,290,2013-09-03 06:54:00
1:54 AM,60.1,46.0,60,29.88,10.0,Variable,3.5,-,N/A,,Clear,0,2013-09-03 07:54:00
2:54 AM,59.0,46.0,62,29.90,10.0,SE,4.6,-,N/A,,Clear,130,2013-09-03 08:54:00
3:54 AM,57.0,46.0,67,29.91,10.0,South,3.5,-,N/A,,Clear,180,2013-09-03 09:54:00
4:54 AM,55.0,46.0,72,29.93,10.0,SSW,4.6,-,N/A,,Clear,200,2013-09-03 10:54:00
5:54 AM,57.0,46.0,67,29.95,10.0,South,10.4,-,N/A,,Clear,180,2013-09-03 11:54:00
6:54 AM,55.0,44.1,67,29.97,10.0,South,4.6,-,N/A,,Clear,170,2013-09-03 12:54:00
7:54 AM,62.1,46.0,56,29.96,10.0,South,5.8,-,N/A,,Clear,190,2013-09-03 13:54:00
8:54 AM,69.1,43.0,39,29.97,10.0,Calm,Calm,-,N/A,,Clear,0,2013-09-03 14:54:00
9:09 AM,69.8,41.0,35,30.09,10.0,West,4.6,-,N/A,,Partly Cloudy,260,2013-09-03 15:09:00
9:54 AM,73.0,41.0,31,29.97,10.0,WNW,3.5,-,N/A,,Clear,290,2013-09-03 15:54:00
10:54 AM,77.0,43.0,30,29.98,10.0,WNW,5.8,-,N/A,,Clear,290,2013-09-03 16:54:00
11:54 AM,80.1,43.0,27,29.98,10.0,Variable,5.8,-,N/A,,Clear,0,2013-09-03 17:54:00
12:54 PM,82.0,43.0,25,29.97,10.0,NW,8.1,-,N/A,,Clear,310,2013-09-03 18:54:00
1:54 PM,84.9,44.1,24,29.96,10.0,North,6.9,-,N/A,,Clear,10,2013-09-03 19:54:00
2:54 PM,86.0,44.1,23,29.96,10.0,North,10.4,-,N/A,,Clear,350,2013-09-03 20:54:00
3:54 PM,87.1,44.1,22,29.96,10.0,NNE,5.8,-,N/A,,Clear,20,2013-09-03 21:54:00
4:54 PM,87.1,44.1,22,29.96,10.0,North,6.9,-,N/A,,Clear,350,2013-09-03 22:54:00
5:54 PM,86.0,45.0,24,29.95,10.0,NNE,8.1,-,N/A,,Clear,30,2013-09-03 23:54:00
6:54 PM,80.1,46.9,31,29.96,8.0,North,4.6,-,N/A,,Clear,350,2013-09-04 00:54:00
7:54 PM,75.9,46.0,35,29.97,10.0,Calm,Calm,-,N/A,,Clear,0,2013-09-04 01:54:00
8:54 PM,68.0,46.0,45,29.99,10.0,SE,5.8,-,N/A,,Clear,130,2013-09-04 02:54:00
9:54 PM,66.9,48.0,51,29.99,10.0,SE,5.8,-,N/A,,Clear,130,2013-09-04 03:54:00
10:54 PM,64.9,48.0,54,29.99,10.0,ESE,9.2,-,N/A,,Clear,120,2013-09-04 04:54:00
11:54 PM,64.0,46.9,54,30.00,10.0,ESE,6.9,-,N/A,,Clear,110,2013-09-04 05:54:00